Aérodrome :
LOGIN :

S'inscrire | Disclaimer

   EN    FR    IT 

 










Légende :    VFR   VFR Marginal   IFR   IFR Intensif   IFR Très Intensif
Visi : 
Plafond : 
>= 8 km
>= 3000ft
5 à 8 km
1000 à 3000 ft
1500m à 5 km
500 à 1000 ft
800 à 1500m
200 à 500 ft
< 800m
< 200 ft
Symboles :   Orages  Brouillard  Fortes neiges  Fortes précipitations  Vent > 20 kt
SIGMETs :   Divers  Orages  Givrage  Turbulence  Onde Orograph.  Cendres Volcan.






- Altitude de l'aérodrome : 106 ft
- Code IATA : XDA


LFBY - Dax Seyresse

DERNIER METAR :
  • 270000Z AUTO 26006KT 200V310 0900 0650 // ////// 11/11 Q1016

METARs EXPIRÉS :
  • 262330Z AUTO 21009KT 180V260 4100 1300 // FEW021/// SCT045/// ///CB 11/10 Q1016
  • 262300Z AUTO 19005KT 9999 // ///CB 10/10 Q1016
  • 262230Z AUTO 24006KT 190V290 4800 // ////// 11/10 Q1017
  • 262200Z AUTO 26004KT 220V310 9000 // ////// 11/10 Q1017
  • 262130Z AUTO 25005KT 220V280 9000 // ////// 12/10 Q1017
  • 262100Z AUTO 23005KT 8000 // ////// 11/10 Q1016

Prévision TAF périmée.



MET'MAP, la Météo Aéronautique d'un coup d'oeil ! - Copyright ORBIFLY Décembre 2007 - Disclaimer

ORBIFLY MET'MAP TEAM :

Programmation & Développement : Alexandra Zaïnal
Sur une idée originale de : Baudouin d'Aumeries
Assistance à la programmation : Marc-Olivier Méhu
Soutien technique & logistique : Manuel Goepfert

Contact : metmap@orbifly.com




SOURCES & CREDITS :

   NOAA